Simultaneous Nadir Overpasses (SNOs) Predictions

Prediction of SNOs between METOP-A and NOAA-19 Satellite Orbit:

Table of predicted SNOs for the next 14.0 days since TLE Epoch: 9/5/2014
Index Date (METOP-A) Time (METOP-A) Lat,Lon (METOP-A) SZA (METOP-A ) Date (NOAA-19) Time (NOAA-19) Lat,Lon (NOAA-19) SZA (NOAA-19 ) Distance(km) Time Diff (sec)
1 09/08/2014 20:04:23 74.81,-124.34 69.26 09/08/2014 20:03:16 74.82,-127.25 69.33 84.68 67
2 09/08/2014 20:55:16 -74.26, 41.51 111.26 09/08/2014 20:54:04 -74.27, 41.52 111.24 1.55 72
3 09/08/2014 21:45:56 74.26,-151.16 68.75 09/08/2014 21:45:08 74.28,-151.25 68.78 3.46 48
4 09/08/2014 22:36:38 -74.24, 16.12 111.26 09/08/2014 22:36:07 -74.25, 16.07 111.24 2.09 31
5 09/08/2014 23:27:19 74.19,-176.67 68.72 09/08/2014 23:27:10 74.20,-176.58 68.73 3.16 9
6 09/09/2014 00:18:00 -74.22, -9.27 111.25 09/09/2014 00:18:10 -74.23, -9.39 111.24 3.83 10
7 09/09/2014 01:08:41 74.17, 157.94 68.72 09/09/2014 01:09:13 74.18, 157.97 68.73 1.45 32
8 09/09/2014 01:59:23 -74.15, -34.78 111.29 09/09/2014 02:00:12 -74.16, -34.72 111.29 1.96 49
9 09/09/2014 02:50:03 74.15, 132.55 68.73 09/09/2014 02:51:16 74.16, 132.51 68.73 1.56 73
10 09/09/2014 03:40:57 -73.54, -61.59 111.84 09/09/2014 03:42:03 -73.55, -58.72 111.89 90.35 66
11 09/19/2014 03:33:37 -74.64, -57.09 106.98 09/19/2014 03:32:27 -74.63, -58.91 106.95 53.50 70
12 09/19/2014 04:24:24 74.30, 109.34 72.71 09/19/2014 04:23:26 74.29, 109.24 72.71 2.95 58
13 09/19/2014 05:15:06 -74.28, -83.38 107.30 09/19/2014 05:14:23 -74.28, -83.45 107.30 2.24 43
14 09/19/2014 06:05:47 74.23, 83.83 72.67 09/19/2014 06:05:28 74.22, 83.92 72.67 2.78 19
15 09/19/2014 06:56:29 -74.21,-108.89 107.34 09/19/2014 06:56:25 -74.21,-108.78 107.34 3.34 4
16 09/19/2014 07:47:09 74.21, 58.44 72.68 09/19/2014 07:47:31 74.20, 58.46 72.67 1.08 22
17 09/19/2014 08:37:51 -74.19,-134.28 107.33 09/19/2014 08:38:28 -74.19,-134.24 107.34 1.33 37
18 09/19/2014 09:28:31 74.19, 33.05 72.69 09/19/2014 09:29:34 74.18, 33.01 72.67 1.60 63
19 09/19/2014 10:19:16 -74.02,-160.04 107.46 09/19/2014 10:20:29 -74.07,-159.45 107.43 18.82 73




NCC Satellite Simultaneous Nadir Overpasses (SNOs) Prediction Service
